Weather in San Severo

Italy     41°41′33″N   15°22′45″E
temp.,
°C
wind,
m/s
gust,
m/s
humid.,
%
clouds,
%
prec.,
mm/h
press.,
hPa
HPBL,
m
5 march, fri
fri501:00+6se34776 0.0 102063
04:00+5se33817 0.0 101956
07:00+5se238316 0.0 101847
10:00+11sw226472 0.0 1018412
13:00+14nw225685 0.0 10171124
16:00+14nne225951 0.0 1017545
19:00+8se238254 0.0 101838
22:00+7se228584 0.0 101922
6 march, sat
sat601:00+6se118451 0.0 102022
04:00+6n11870 0.0 102022
07:00+7n118727 0.0 102125
10:00+13nw227253 0.0 1023476
13:00+14n456362 1.4 10231118
16:00+12nnw457230 0.2 1023877
19:00+9nw378862 0.4 1025351
22:00+8nnw258696 0.0 1026223
7 march, sun
sun701:00+6nnw238594 0.0 102682
04:00+5nnw118575 0.0 102528
07:00+5n118662 0.0 102631
10:00+11nnw23694 0.0 1025668
13:00+12n326429 0.0 1024869
16:00+11nne326838 0.0 1022475
19:00+7se118853 0.0 102223
22:00+6se239474 0.0 102141
8 march, mon
mon801:00+6se239260 0.0 101933
04:00+7se358986 0.0 1017135
07:00+7se369293 0.0 1016162
10:00+13sse4571100 0.0 1016527
13:00+16sse356197 0.0 10151026
16:00+14sse357699 0.4 1013255
19:00+9nw249699 0.8 1013108
22:00+8nnw129896 0.0 101350
9 march, tue
tue901:00+8n229798 0.0 101365
04:00+7ne229496 0.0 101226
07:00+9n119095 0.1 101244
10:00+12n2384100 0.1 1013442
13:00+14nne457276 0.5 1014695
16:00+11nne4579100 0.3 1013457
19:00+9ne4681100 0.5 1014251
22:00+8nne2294100 2.3 1016134